Date_and_time,latitude,longitude,wind_speed,RelWindDirFrom,WindDirFrom,air_pressure,air_temperature,relative_humidity,Temp,platform_speed_wrt_ground,air_pressure_at_mean_sea_level,platform_orientation
2019-01-20 23:40,50.63045,-96.98077,3.6,4.6,133,1003.66,-26.0,68,0.28,0.0,1034.85,90.0
2019-01-20 23:50,50.6304483333333,-96.9807666666667,2.6,4.0,151,1003.43,-26.8,68,0.28,0.0,1034.66,90.0
2019-01-21 00:00,50.6304483333333,-96.9807666666667,2.4,3.1,163,1003.23,-26.7,68,0.27,0.0,1034.45,167.4
2019-01-21 00:10,50.63045,-96.980765,3.7,4.4,167,1003.12,-26.7,67,0.28,0.0,1034.34,167.4
2019-01-21 00:20,50.63045,-96.980765,5.0,5.7,171,1002.99,-26.8,67,0.28,0.0,1034.22,167.4
2019-01-21 00:30,50.6304483333333,-96.980765,5.8,6.4,162,1002.81,-26.7,67,0.28,0.0,1034.05,167.4
2019-01-21 00:40,50.6304483333333,-96.980765,5.3,6.5,164,1002.65,-26.8,68,0.28,0.0,1033.91,167.4
2019-01-21 00:50,50.6304483333333,-96.980765,4.4,5.2,173,1002.47,-26.9,68,0.28,0.0,1033.76,167.4
2019-01-21 01:00,50.6304466666667,-96.9807633333333,4.2,5.2,161,1002.29,-27.0,67,0.29,0.0,1033.61,347.4
2019-01-21 01:10,50.6304466666667,-96.9807633333333,5.1,6.0,158,1002.16,-27.4,68,0.29,0.0,1033.51,347.4
2019-01-21 01:20,50.6304816666667,-96.9807766666667,5.8,6.6,161,1002.01,-27.6,68,0.29,0.0,1033.39,347.4
2019-01-21 01:30,50.6304533333333,-96.98077,6.4,7.7,157,1001.81,-27.3,68,0.29,0.0,1033.17,347.4
2019-01-21 01:40,50.6304433333333,-96.9807816666667,6.5,8.1,153,1001.60,-27.3,67,0.29,0.0,1033.00,347.4
2019-01-21 01:50,50.6304483333333,-96.9807683333333,6.3,7.1,158,1001.53,-27.6,68,0.29,0.0,1032.94,347.4
2019-01-21 02:00,50.63045,-96.980765,7.0,8.1,163,1001.43,-27.6,68,0.30,0.0,1032.84,90.0
2019-01-21 02:10,50.6304716666667,-96.98076,7.2,7.8,163,1001.30,-27.6,67,0.30,0.0,1032.71,90.0
2019-01-21 02:20,50.6304483333333,-96.9807633333333,6.5,7.1,166,1001.14,-27.7,68,0.30,0.0,1032.54,90.0
2019-01-21 02:30,50.6304483333333,-96.9807633333333,7.0,8.6,157,1000.84,-27.5,67,0.30,0.0,1032.23,90.0
2019-01-21 02:40,50.630445,-96.980765,8.1,9.3,156,1000.62,-27.3,67,0.30,0.0,1032.00,90.0
2019-01-21 02:50,50.6304466666667,-96.980765,8.2,9.6,155,1000.52,-27.5,67,0.30,0.0,1031.91,90.0
2019-01-21 03:00,50.630445,-96.980765,8.3,9.7,151,1000.34,-27.7,67,0.30,0.0,1031.77,360.0
2019-01-21 03:10,50.6304433333333,-96.980765,8.3,10.0,148,1000.18,-27.8,67,0.30,0.0,1031.63,360.0
2019-01-21 03:20,50.630445,-96.9807666666667,9.4,10.7,147,999.99,-27.7,67,0.30,0.0,1031.40,360.0
2019-01-21 03:30,50.630445,-96.9807666666667,10.6,11.9,144,999.72,-27.5,66,0.30,0.0,1031.11,360.0
2019-01-21 03:40,50.630445,-96.9807666666667,10.7,11.7,145,999.48,-27.4,65,0.30,0.0,1030.88,360.0
2019-01-21 03:50,50.630445,-96.980765,9.7,11.8,147,999.22,-27.5,65,0.30,0.0,1030.61,360.0
2019-01-21 04:00,50.6304616666667,-96.9807716666667,8.3,10.0,153,999.13,-27.7,66,0.30,0.0,1030.53,360.0
2019-01-21 04:10,50.6304583333333,-96.9807666666667,7.9,9.1,158,999.05,-27.9,66,0.30,0.0,1030.46,360.0
2019-01-21 04:20,50.6304366666667,-96.9807466666667,8.9,10.2,161,998.99,-27.9,66,0.30,0.0,1030.39,360.0
2019-01-21 04:30,50.630455,-96.9807733333333,8.9,10.3,159,998.93,-27.9,66,0.29,0.0,1030.32,360.0
2019-01-21 04:40,50.63046,-96.9807733333333,8.9,10.5,158,998.75,-27.8,66,0.29,0.0,1030.14,360.0
2019-01-21 04:50,50.6304416666667,-96.9807383333333,9.1,11.0,154,998.56,-27.6,65,0.29,0.0,1029.94,360.0
2019-01-21 05:00,50.6304566666667,-96.9807666666667,9.0,10.9,155,998.51,-27.3,65,0.30,0.0,1029.89,90.0
2019-01-21 05:10,50.6304583333333,-96.98076,9.3,11.3,156,998.43,-27.2,65,0.29,0.0,1029.79,90.0
2019-01-21 05:20,50.6304566666667,-96.98076,9.2,11.3,159,998.34,-27.1,64,0.29,0.0,1029.67,90.0
2019-01-21 05:30,50.6304566666667,-96.98076,10.2,11.7,163,998.33,-26.9,64,0.28,0.0,1029.63,90.0
2019-01-21 05:40,50.6304566666667,-96.9807616666667,9.8,11.7,166,998.28,-26.8,64,0.29,0.0,1029.59,90.0
2019-01-21 05:50,50.6304583333333,-96.9807633333333,9.4,11.4,161,998.20,-26.8,63,0.29,0.0,1029.52,90.0
2019-01-21 06:00,50.63046,-96.9807666666667,8.5,9.9,159,998.14,-26.9,63,0.29,0.0,1029.48,360.0
2019-01-21 06:10,50.63047,-96.9808116666667,8.3,10.0,159,998.08,-27.1,64,0.29,0.0,1029.42,360.0
2019-01-21 06:20,50.6304666666667,-96.9807716666667,8.8,10.2,151,997.86,-27.1,64,0.29,0.0,1029.20,360.0
2019-01-21 06:30,50.6304666666667,-96.980765,9.5,11.5,146,997.65,-27.0,64,0.30,0.0,1028.97,360.0
2019-01-21 06:40,50.6304683333333,-96.98076,10.3,11.9,138,997.47,-26.7,63,0.30,0.0,1028.75,360.0
2019-01-21 06:50,50.6304683333333,-96.9807583333333,10.3,11.7,142,997.33,-26.6,63,0.30,0.0,1028.59,360.0
2019-01-21 07:00,50.6304516666667,-96.98076,9.4,11.0,148,997.21,-26.7,63,0.29,0.0,1028.46,143.4
2019-01-21 07:10,50.6304683333333,-96.9807633333333,10.3,12.0,147,996.94,-26.6,63,0.29,0.0,1028.16,143.4
2019-01-21 07:20,50.6304716666667,-96.98076,9.7,11.5,153,996.81,-26.5,64,0.29,0.0,1028.01,143.4
2019-01-21 07:30,50.6304533333333,-96.9807766666667,9.9,11.9,154,996.63,-26.3,63,0.30,0.0,1027.81,143.4
2019-01-21 07:40,50.6304883333333,-96.9807716666667,10.2,12.5,153,996.43,-26.0,63,0.29,0.0,1027.59,143.4
2019-01-21 07:50,50.6304716666667,-96.9807666666667,9.7,12.0,156,996.38,-25.9,63,0.29,0.0,1027.54,143.4
2019-01-21 08:00,50.6304533333333,-96.9808166666667,10.5,13.5,154,996.17,-25.7,64,0.29,0.0,1027.32,270.0
2019-01-21 08:10,50.63047,-96.9807583333333,12.0,15.6,153,996.04,-25.1,63,0.28,0.0,1027.15,270.0
2019-01-21 08:20,50.630445,-96.98076,11.7,14.9,156,996.01,-24.7,63,0.27,0.0,1027.08,270.0
2019-01-21 08:30,50.6304666666667,-96.98076,11.6,14.4,155,995.86,-24.5,64,0.26,0.0,1026.90,270.0
2019-01-21 08:40,50.63046,-96.9807633333333,11.1,13.9,153,995.67,-24.3,64,0.27,0.0,1026.68,270.0
2019-01-21 08:50,50.6304666666667,-96.9807716666667,11.3,14.8,153,995.62,-24.1,64,0.27,0.0,1026.62,270.0
2019-01-21 09:00,50.6304483333333,-96.98075,12.6,15.9,152,995.35,-23.9,63,0.27,0.0,1026.33,143.4
2019-01-21 09:10,50.63045,-96.9807583333333,12.2,15.2,151,995.19,-23.8,64,0.27,0.0,1026.14,143.4
2019-01-21 09:20,50.6304516666667,-96.98076,13.1,16.9,151,994.98,-23.5,64,0.27,0.0,1025.90,143.4
2019-01-21 09:30,50.6304516666667,-96.9807616666667,13.9,16.6,149,994.80,-23.4,64,0.27,0.0,1025.69,143.4
2019-01-21 09:40,50.630455,-96.9807616666667,14.1,17.3,150,994.70,-23.3,65,0.32,0.0,1025.57,143.4
2019-01-21 09:50,50.6304583333333,-96.98076,14.4,17.4,149,994.49,-23.0,65,0.27,0.0,1025.33,143.4
2019-01-21 10:00,50.6304683333333,-96.9807566666667,14.6,17.7,151,994.22,-22.8,66,0.27,0.0,1025.00,18.9
2019-01-21 10:10,50.630465,-96.9807516666667,14.2,17.7,154,994.12,-22.4,67,0.27,0.0,1024.85,18.9
2019-01-21 10:20,50.6304683333333,-96.9807516666667,14.2,17.6,152,993.98,-22.1,67,0.27,0.0,1024.67,18.9
2019-01-21 10:30,50.6304633333333,-96.9807733333333,14.2,17.1,152,993.83,-21.8,68,0.28,0.0,1024.49,18.9
2019-01-21 10:40,50.63046,-96.9807616666667,13.5,16.1,151,993.67,-21.5,70,0.27,0.0,1024.29,18.9
2019-01-21 10:50,50.6304583333333,-96.9807616666667,14.1,17.1,161,993.61,-20.8,70,0.27,0.0,1024.17,18.9
2019-01-21 11:00,50.6304483333333,-96.980765,14.2,17.1,164,993.49,-20.2,67,0.27,0.0,1024.00,98.8
2019-01-21 11:10,50.6304483333333,-96.98077,15.7,20.0,165,993.29,-19.7,66,0.27,0.0,1023.74,98.8
2019-01-21 11:20,50.63048,-96.9807716666667,15.2,18.9,168,993.24,-19.3,65,0.27,0.0,1023.66,98.8
2019-01-21 11:30,50.63046,-96.980755,17.7,20.9,169,993.06,-19.0,65,0.26,0.0,1023.45,98.8
2019-01-21 11:40,50.63046,-96.9807616666667,17.4,22.2,169,992.97,-18.9,65,0.26,0.0,1023.34,98.8
2019-01-21 11:50,50.6304516666667,-96.980765,16.9,21.0,166,992.83,-18.8,65,0.26,0.0,1023.17,98.8
2019-01-21 12:00,50.63045,-96.9807666666667,17.8,21.4,167,992.69,-18.6,66,0.27,0.0,1022.99,305.3
2019-01-21 12:10,50.630455,-96.98077,16.9,20.9,165,992.64,-18.5,66,0.27,0.0,1022.91,305.3
2019-01-21 12:20,50.630455,-96.98077,15.9,19.4,166,992.57,-18.3,68,0.27,0.0,1022.81,305.3
2019-01-21 12:30,50.6304533333333,-96.98077,17.5,22.0,163,992.49,-18.2,68,0.28,0.0,1022.71,305.3
2019-01-21 12:40,50.6304233333333,-96.9807583333333,16.8,19.3,162,992.34,-18.1,68,0.27,0.0,1022.51,305.3
2019-01-21 12:50,50.6304366666667,-96.9807566666667,15.3,18.2,158,992.29,-18.2,70,0.27,0.0,1022.43,305.3
2019-01-21 13:00,50.630445,-96.9807716666667,15.4,18.5,161,992.23,-18.2,70,0.27,0.0,1022.33,360.0
2019-01-21 13:10,50.6304266666667,-96.98077,15.0,17.9,161,992.30,-18.0,70,0.26,0.0,1022.37,360.0
2019-01-21 13:20,50.6304416666667,-96.980775,15.1,19.5,162,992.25,-17.9,70,0.26,0.0,1022.30,360.0
2019-01-21 13:30,50.630435,-96.980765,14.0,16.8,162,992.38,-17.9,70,0.26,0.0,1022.42,360.0
2019-01-21 13:40,50.63047,-96.98079,13.5,17.1,164,992.37,-17.9,70,0.27,0.0,1022.40,360.0
2019-01-21 13:50,50.630455,-96.980775,13.5,16.5,168,992.30,-17.6,68,0.28,0.0,1022.30,360.0
2019-01-21 14:00,50.6304516666667,-96.98077,14.4,18.2,166,992.12,-17.5,68,0.29,0.0,1022.10,360.0
2019-01-21 14:10,50.6304483333333,-96.9807683333333,12.7,16.1,160,992.03,-17.5,69,0.29,0.0,1022.00,360.0
2019-01-21 14:20,50.63045,-96.9807683333333,12.6,16.1,157,991.92,-17.5,70,0.29,0.0,1021.88,360.0
2019-01-21 14:30,50.63045,-96.9807666666667,14.7,17.6,159,991.72,-17.3,69,0.30,0.0,1021.66,360.0
2019-01-21 14:40,50.63045,-96.9807666666667,14.5,17.6,155,991.62,-17.3,71,0.30,0.0,1021.55,360.0
2019-01-21 14:50,50.6304483333333,-96.9807683333333,16.0,19.0,154,991.44,-17.3,73,0.28,0.0,1021.37,360.0
2019-01-21 15:00,50.63045,-96.9807683333333,17.1,20.4,160,991.39,-17.2,73,0.27,0.0,1021.31,0.0
2019-01-21 15:10,50.6304516666667,-96.980775,16.2,19.2,162,991.40,-17.1,72,0.27,0.0,1021.31,0.0
2019-01-21 15:20,50.6304483333333,-96.9807766666667,17.0,20.1,164,991.23,-17.0,70,0.27,0.0,1021.12,0.0
2019-01-21 15:30,50.6304516666667,-96.9807716666667,16.4,20.0,165,991.17,-16.9,70,0.28,0.0,1021.05,0.0
2019-01-21 15:40,50.6304533333333,-96.9807733333333,16.6,19.8,166,991.09,-16.7,70,0.28,0.0,1020.94,0.0
2019-01-21 15:50,50.630455,-96.9807716666667,16.0,19.3,167,991.15,-16.5,70,0.27,0.0,1020.98,0.0
2019-01-21 16:00,50.630455,-96.9807716666667,15.2,19.0,171,991.22,-16.3,71,0.27,0.0,1021.05,360.0
2019-01-21 16:10,50.6304533333333,-96.98077,15.0,19.4,173,991.32,-16.2,72,0.28,0.0,1021.14,360.0
2019-01-21 16:20,50.6304533333333,-96.98077,14.9,19.2,173,991.35,-16.0,72,0.28,0.0,1021.16,360.0
2019-01-21 16:30,50.6304533333333,-96.98077,14.6,19.2,170,991.20,-15.8,72,0.29,0.0,1020.98,360.0
2019-01-21 16:40,50.6304416666667,-96.9807533333333,14.7,18.5,170,991.29,-15.7,72,0.30,0.0,1021.07,360.0
2019-01-21 16:50,50.6304466666667,-96.980755,13.5,17.2,174,991.35,-15.5,72,0.30,0.0,1021.11,360.0
2019-01-21 17:00,50.6304466666667,-96.9807616666667,13.0,18.3,171,991.32,-15.3,71,0.29,0.0,1021.06,167.4
2019-01-21 17:10,50.630445,-96.9807616666667,15.9,20.9,174,991.00,-15.0,70,0.29,0.0,1020.72,167.4
2019-01-21 17:20,50.6304466666667,-96.9807616666667,15.9,21.3,177,990.82,-14.8,70,0.30,0.0,1020.51,167.4
2019-01-21 17:30,50.6304466666667,-96.9807633333333,16.6,22.3,180,990.91,-14.7,68,0.30,0.0,1020.59,167.4
2019-01-21 17:40,50.6304483333333,-96.980765,14.9,20.5,180,990.98,-14.6,68,0.31,0.0,1020.65,167.4
2019-01-21 17:50,50.63045,-96.9807666666667,16.9,21.5,180,990.78,-14.6,68,0.31,0.0,1020.42,167.4
2019-01-21 18:00,50.63045,-96.9807666666667,16.5,20.6,182,990.67,-14.5,68,0.32,0.0,1020.30,0.0
2019-01-21 18:10,50.63045,-96.9807916666667,17.2,22.0,182,990.57,-14.4,69,0.32,0.0,1020.18,0.0
2019-01-21 18:20,50.63045,-96.98077,17.3,22.8,181,990.33,-14.3,69,0.31,0.0,1019.91,0.0
2019-01-21 18:30,50.63045,-96.98077,15.7,20.3,179,990.49,-14.1,70,0.31,0.0,1020.06,0.0
2019-01-21 18:40,50.63045,-96.9807716666667,16.9,21.8,183,990.42,-14.1,70,0.32,0.0,1019.97,0.0
2019-01-21 18:50,50.63045,-96.9807716666667,15.9,21.8,182,990.54,-14.1,71,0.32,0.0,1020.09,0.0
2019-01-21 19:00,50.63045,-96.9807716666667,15.2,21.0,188,990.60,-13.9,72,0.31,0.0,1020.12,90.0
2019-01-21 19:10,50.63045,-96.9807716666667,16.4,22.1,186,990.64,-13.9,73,0.30,0.0,1020.15,90.0
2019-01-21 19:20,50.6304483333333,-96.98077,18.2,25.4,186,990.62,-13.9,73,0.30,0.0,1020.12,90.0
2019-01-21 19:30,50.6304483333333,-96.98077,18.8,26.2,187,990.50,-13.9,73,0.30,0.0,1020.00,90.0
2019-01-21 19:40,50.6304483333333,-96.98077,17.9,24.7,182,990.46,-13.9,74,0.30,0.0,1019.95,90.0
2019-01-21 19:50,50.6304466666667,-96.98077,17.7,21.4,185,990.42,-14.0,75,0.30,0.0,1019.91,90.0
2019-01-21 20:00,50.6304483333333,-96.98077,16.5,21.2,184,990.33,-14.0,76,0.30,0.0,1019.82,270.0
2019-01-21 20:10,50.6304333333333,-96.9807833333333,15.4,22.4,183,990.33,-13.9,76,0.30,0.0,1019.80,270.0
2019-01-21 20:20,50.6304416666667,-96.9807816666667,14.7,20.0,184,990.25,-14.0,76,0.30,0.0,1019.71,270.0
2019-01-21 20:30,50.630445,-96.980775,15.0,21.4,184,990.08,-13.9,76,0.30,0.0,1019.54,270.0
2019-01-21 20:40,50.6304466666667,-96.9807733333333,13.7,20.0,179,989.85,-13.6,76,0.30,0.0,1019.28,270.0
2019-01-21 20:50,50.6304666666667,-96.980775,13.2,17.1,183,989.75,-13.4,76,0.30,0.0,1019.16,270.0
2019-01-21 21:00,50.6304566666667,-96.98077,13.5,17.0,186,989.70,-13.4,76,0.31,0.0,1019.10,90.0
2019-01-21 21:10,50.6304533333333,-96.9807616666667,13.3,19.3,182,989.85,-13.4,76,0.31,0.0,1019.26,90.0
2019-01-21 21:20,50.630455,-96.9807633333333,14.4,19.9,184,990.08,-13.4,76,0.31,0.0,1019.49,90.0
2019-01-21 21:30,50.630455,-96.9807616666667,13.4,17.5,184,990.24,-13.5,78,0.32,0.0,1019.66,90.0
2019-01-21 21:40,50.6304466666667,-96.9807466666667,11.6,18.7,186,990.44,-13.4,79,0.32,0.0,1019.87,90.0
2019-01-21 21:50,50.63045,-96.9807483333333,13.1,18.4,187,990.52,-13.4,79,0.32,0.0,1019.95,90.0
2019-01-21 22:00,50.6304633333333,-96.9807683333333,12.1,15.7,181,990.49,-13.3,80,0.33,0.0,1019.92,14.5
2019-01-21 22:10,50.6304533333333,-96.9807366666667,12.6,18.8,179,990.35,-13.3,80,0.33,0.0,1019.77,14.5
2019-01-21 22:20,50.6304533333333,-96.9807483333333,12.9,18.2,178,990.21,-13.3,80,0.33,0.0,1019.62,14.5
2019-01-21 22:30,50.6304516666667,-96.9807516666667,11.9,15.7,179,990.32,-13.2,81,0.33,0.0,1019.72,14.5
2019-01-21 22:40,50.6304533333333,-96.980755,11.6,15.8,182,990.35,-13.2,80,0.35,0.0,1019.73,14.5
2019-01-21 22:50,50.630455,-96.9807566666667,10.9,14.1,184,990.37,-13.1,79,0.36,0.0,1019.75,14.5
2019-01-21 23:00,50.6304466666667,-96.9807533333333,10.4,13.3,181,990.48,-13.1,79,0.37,0.0,1019.86,90.0
2019-01-21 23:10,50.6304616666667,-96.980755,9.5,13.1,182,990.57,-13.1,79,0.37,0.0,1019.95,90.0
2019-01-21 23:20,50.6304683333333,-96.9808066666667,8.5,10.6,173,990.51,-13.1,79,0.38,0.0,1019.89,90.0
2019-01-21 23:30,50.63045,-96.980765,8.7,11.4,176,990.51,-13.1,79,0.38,0.0,1019.89,90.0
2019-01-21 23:40,50.6304516666667,-96.9807716666667,7.6,9.3,174,990.56,-13.0,79,0.37,0.0,1019.94,90.0
2019-01-21 23:50,50.6304516666667,-96.9807733333333,8.0,10.2,172,990.53,-13.0,79,0.37,0.0,1019.90,90.0
